Weather History for Whitefield, NH

Change the Weather History Date:

Thursday, May 31, 2012

  Actual Average Record
Temperature  
Mean Temperature 60 °F -  
Max Temperature 73 °F 65 °F 88 °F (1999)
Min Temperature 48 °F 38 °F 28 °F (2004)
Degree Days  
Heating Degree Days 5    
Growing Degree Days 10 (Base 50)    
Moisture  
Dew Point 52 °F    
Average Humidity 81    
Maximum Humidity 100    
Minimum Humidity 46    
Precipitation  
Precipitation 0.00 in - - ()
Sea Level Pressure  
Sea Level Pressure 29.81 in    
Wind  
Wind Speed 2 mph (NW)    
Max Wind Speed 14 mph    
Max Gust Speed 21 mph    
Visibility 5 miles    
Events Fog    
Averages and records for this station are not official NWS values.
T = Trace of Precipitation, MM = Missing Value Source: NWS Daily Summary

Daily Weather History Graph

Daily Weather History Graph

Search for Another Location

Airport:

Trip Planner

Search our weather history database for the weather conditions in past years. The results will help you decide how hot, cold, wet, or windy it might be!

Date:

Astronomy

May. 31, 2012 Rise Set
Actual Time 5:05 AM EDT 8:23 PM EDT
Civil Twilight 4:29 AM EDT 8:58 PM EDT
Nautical Twilight 3:43 AM EDT 9:45 PM EDT
Astronomical Twilight 2:46 AM EDT 10:42 PM EDT
Moon 4:01 PM EDT (5/31) 2:11 AM EDT (5/31)
Length of Visible Light 16h 29m
Length of Day
15h 17m
Waxing Gibbous, 80% of the Moon is Illuminated
May 31
Waxing Gibbous
Jun 4
Full
Jun 11
Last Quarter
Jun 19
New
Jun 26
First Quarter

Hourly Weather History & Observations

Time (EDT) Temp. Dew Point Humidity Pressure Visibility Wind Dir Wind Speed Gust Speed Precip Events Conditions
12:52 AM 57.9 °F 55.9 °F 93% 29.74 in 6.0 mi Calm Calm - N/A   Mostly Cloudy
1:16 AM 57.2 °F 55.4 °F 94% 29.75 in 1.8 mi Calm Calm - N/A   Overcast
1:19 AM 57.2 °F 55.4 °F 94% 29.75 in 0.8 mi Calm Calm - N/A   Overcast
1:29 AM 55.4 °F 55.4 °F 100% 29.74 in 1.8 mi Calm Calm - N/A   Overcast
1:31 AM 57.2 °F 55.4 °F 94% 29.74 in 4.0 mi Calm Calm - N/A   Overcast
1:49 AM 55.4 °F 53.6 °F 94% 29.74 in 1.8 mi Calm Calm - N/A   Mostly Cloudy
1:52 AM 55.9 °F 54.0 °F 93% 29.74 in 1.0 mi Calm Calm - N/A   Mostly Cloudy
1:59 AM 55.4 °F 53.6 °F 94% 29.74 in 0.5 mi Calm Calm - N/A Fog Fog
2:25 AM 55.4 °F 53.6 °F 94% 29.74 in 0.8 mi Calm Calm - N/A   Mostly Cloudy
2:52 AM 54.0 °F 53.1 °F 97% 29.73 in 0.2 mi Calm Calm - N/A Fog Fog
3:52 AM 54.0 °F 53.1 °F 97% 29.74 in 0.2 mi Calm Calm - N/A Fog Fog
4:52 AM 54.0 °F 53.1 °F 97% 29.76 in 0.2 mi Calm Calm - N/A Fog Fog
5:52 AM 55.0 °F 54.0 °F 96% 29.77 in 0.5 mi Calm Calm - N/A Fog Fog
6:18 AM 55.4 °F 53.6 °F 94% 29.78 in 1.2 mi NE 3.5 mph - N/A   Overcast
6:27 AM 55.4 °F 53.6 °F 94% 29.78 in 3.0 mi Calm Calm - N/A   Overcast
6:52 AM 55.9 °F 55.0 °F 97% 29.80 in 2.0 mi Calm Calm - N/A   Overcast
6:59 AM 55.4 °F 55.4 °F 100% 29.79 in 1.5 mi Calm Calm - N/A   Overcast
7:04 AM 55.4 °F 55.4 °F 100% 29.80 in 0.8 mi Calm Calm - N/A   Overcast
7:44 AM 57.2 °F 55.4 °F 94% 29.81 in 1.5 mi Calm Calm - N/A   Overcast
7:50 AM 57.2 °F 55.4 °F 94% 29.81 in 3.0 mi Calm Calm - N/A   Overcast
7:52 AM 57.0 °F 55.9 °F 96% 29.81 in 4.0 mi Calm Calm - N/A   Overcast
8:34 AM 60.8 °F 55.4 °F 82% 29.81 in 10.0 mi Calm Calm - N/A   Scattered Clouds
8:52 AM 61.0 °F 55.9 °F 83% 29.82 in 10.0 mi Calm Calm - N/A   Clear
9:52 AM 64.9 °F 55.9 °F 73% 29.81 in 10.0 mi SE 3.5 mph - N/A   Partly Cloudy
10:52 AM 69.1 °F 52.0 °F 54% 29.81 in 10.0 mi Variable 4.6 mph - N/A   Scattered Clouds
11:52 AM 69.1 °F 51.1 °F 53% 29.81 in 10.0 mi WNW 5.8 mph - N/A   Partly Cloudy
12:52 PM 68.0 °F 48.9 °F 50% 29.80 in 10.0 mi WNW 11.5 mph - N/A   Mostly Cloudy
1:52 PM 68.0 °F 48.0 °F 49% 29.81 in 10.0 mi NW 10.4 mph - N/A   Mostly Cloudy
2:52 PM 70.0 °F 48.0 °F 46% 29.82 in 10.0 mi Variable 6.9 mph 16.1 mph N/A   Mostly Cloudy
3:52 PM 69.1 °F 48.9 °F 49% 29.83 in 10.0 mi WNW 13.8 mph 17.3 mph N/A   Mostly Cloudy
4:52 PM 66.9 °F 46.9 °F 49% 29.85 in 10.0 mi WNW 9.2 mph 17.3 mph N/A   Partly Cloudy
5:52 PM 66.9 °F 46.9 °F 49% 29.86 in 10.0 mi NNW 10.4 mph 20.7 mph N/A   Partly Cloudy
6:52 PM 66.0 °F 46.0 °F 48% 29.88 in 10.0 mi WNW 9.2 mph 17.3 mph N/A   Mostly Cloudy
7:52 PM 63.0 °F 46.0 °F 54% 29.92 in 10.0 mi NW 8.1 mph - N/A   Overcast
8:52 PM 57.0 °F 46.0 °F 67% 29.94 in 10.0 mi NNW 4.6 mph - N/A   Partly Cloudy
9:52 PM 55.0 °F 46.0 °F 72% 29.96 in 10.0 mi NNW 4.6 mph - N/A   Clear
10:52 PM 50.0 °F 46.0 °F 86% 29.99 in 10.0 mi Calm Calm - N/A   Clear
11:52 PM 48.0 °F 45.0 °F 89% 30.00 in 10.0 mi Calm Calm - N/A   Clear